This demonstration page uses our WeatherBlox Daily Observations layout. Learn more.

Left ArrowRight Arrow

Hourly Observations for January 9, 2015

Temp ( °F °C ) Dew Point ( °F °C ) Humidity (%) Winds ( mph kmh ) Pressure ( in mb ) Visibility ( mi km ) Precip ( " mm )
12:52 am 00:52 Mostly Clear 11 -11.7 2 -16.7 67 67 NNW 16 26 30.48 1032 10 16 0.00 0.00
1:52 am 01:52 Clear 9 -12.8 -1 -18.3 64 64 NNW 16 26 30.52 1033 10 16 0.00 0.00
2:52 am 02:52 Mostly Clear 8 -13.3 -2 -18.9 63 63 NW 21 33 30.56 1035 10 16 0.00 0.00
3:52 am 03:52 Partly Cloudy 7 -13.9 -3 -19.4 63 63 NW 15 24 30.57 1035 10 16 0.00 0.00
4:17 am 04:17 Cloudy with Light Snow 7 -14 -2 -19 66 66 NW 14 22 30.65 1038 10 16 0.00 0.00
4:31 am 04:31 Partly Cloudy 6 -14.4 -2 -18.9 69 69 WNW 14 22 30.65 1038 10 16 0.00 0.03
4:52 am 04:52 Mostly Clear 6 -14.4 -3 -19.4 66 66 NW 17 28 30.58 1035 10 16 0.00 0.03
5:52 am 05:52 Clear 5 -15 -4 -20 66 66 NW 14 22 30.57 1035 10 16 0.00 0.00
6:52 am 06:52 Clear 5 -15 -5 -20.6 63 63 NW 14 22 30.59 1036 10 16 0.00 0.00
7:52 am 07:52 Sunny 4 -15.6 -5 -20.6 66 66 NW 12 19 30.61 1037 10 16 0.00 0.00
8:52 am 08:52 Sunny 6 -14.4 -5 -20.6 60 60 NW 15 24 30.62 1037 10 16 0.00 0.00
9:52 am 09:52 Mostly Sunny 9 -12.8 -4 -20 55 55 WNW 17 28 30.63 1037 10 16 0.00 0.00
10:52 am 10:52 Mostly Sunny 10 -12.2 -3 -19.4 55 55 WNW 13 20 30.64 1038 10 16 0.00 0.00
11:52 am 11:52 Mostly Sunny 12 -11.1 -2 -18.9 53 53 WNW 15 24 30.62 1037 10 16 0.00 0.00
12:52 pm 12:52 Mostly Sunny 13 -10.6 -1 -18.3 54 54 WNW 14 22 30.60 1036 10 16 0.00 0.00
1:52 pm 13:52 Mostly Sunny 15 -9.4 0 -17.8 51 51 W 14 22 30.57 1035 10 16 0.00 0.00
2:52 pm 14:52 Mostly Sunny 16 -8.9 0 -17.8 49 49 WNW 17 28 30.57 1035 10 16 0.00 0.00
3:52 pm 15:52 Sunny 16 -8.9 0 -17.8 49 49 WNW 15 24 30.58 1036 10 16 0.00 0.00
4:52 pm 16:52 Sunny 15 -9.4 -1 -18.3 49 49 WNW 9 15 30.58 1036 10 16 0.00 0.00
5:52 pm 17:52 Clear 11 -11.7 0 -17.8 61 61 NW 3 6 30.58 1035 10 16 0.00 0.00
6:52 pm 18:52 Clear 12 -11.1 1 -17.2 61 61 Calm 30.56 1035 10 16 0.00 0.00
7:52 pm 19:52 Clear 9 -12.8 0 -17.8 66 66 Calm 30.57 1035 10 16 0.00 0.00
8:52 pm 20:52 Clear 5 -15 -1 -18.3 76 76 ESE 3 6 30.56 1035 10 16 0.00 0.00
9:52 pm 21:52 Clear 7 -13.9 1 -17.2 76 76 SSE 3 6 30.54 1034 10 16 0.00 0.00
10:52 pm 22:52 Clear 6 -14.4 1 -17.2 79 79 SSE 3 6 30.52 1034 10 16 0.00 0.00
11:52 pm 23:52 Clear 5 -15 0 -17.8 79 79 SE 7 11 30.48 1032 10 16 0.00 0.00

Powered by AerisWeather